shenyang , China , ASIA

  • Sunday
    February 23

      Sunny

      21 °F

      South

       

  • Monday
    February 24

    Sunny  Cloudy

    46 °F  27 °F

    Northeast  Northeast

       3~4L 

  • Tuesday
    February 25

    Cloudy  Cloudy

    37 °F  23 °F

    Northeast  Northeast

    4~5L   3~4L 

  • Wednesday
    February 26

    Sunny  Sunny

    39 °F  18 °F

    Northeast  Northeast

    3~4L    

  • Thursday
    February 27

    Sunny  Cloudy

    41 °F  25 °F

    Northeast  Northeast

        

  • Friday
    February 28

    Cloudy  Cloudy

    45 °F  30 °F

    South  South

    3~4L    

  • Saturday
    February 29

    Cloudy  Cloudy

    43 °F  27 °F

    Northeast  Northeast

        

Date   Weather Temperature Humidity Total_rain Visibility Wind
23:00 Sunny 26°F 69.7% 0mm 999.9km Southwest  2.1m/s
02:00 Sunny 22°F 69.9% 0mm 999.9km Northwest  1.7m/s
05:00 Sunny 22°F 78.1% 0mm 999.9km Northeast  1.4m/s
08:00 Sunny 28°F 71.5% 0mm 999.9km Northeast  2.3m/s
11:00 Sunny 40°F 57.8% 0mm 999.9km Northeast  2.6m/s
14:00 Sunny 46°F 52.8% 0mm 999.9km Northeast  2.9m/s
17:00 Sunny 41°F 56.8% 0mm 999.9km Northeast  2.3m/s
20:00 Sunny 32°F 47.6% 0mm 999.9km Northeast  2.2m/s
23:00 Cloudy 31°F 65.8% 0mm 999.9km Northeast  2.0m/s
02:00 Cloudy 31°F 67.6% 0mm 999.9km Northeast  2.6m/s
05:00 Cloudy 30°F 71% 0mm 999.9km Northeast  2.5m/s
08:00 Cloudy 27°F 63.5% 0mm 999.9km Northeast  3.6m/s
11:00 Cloudy 34°F 59.4% 0mm 999.9km Northeast  4.1m/s
14:00 Cloudy 37°F 50.8% 0mm 999.9km Northeast  4.1m/s
17:00 Cloudy 36°F 53.4% 0mm 999.9km Northeast  3.7m/s
20:00 Cloudy 30°F 58.9% 0mm 999.9km Northeast  3.0m/s
23:00 Cloudy 30°F 60.7% 0mm 999.9km Northeast  1.9m/s
02:00 Cloudy 28°F 74.8% 0mm 999.9km Northeast  2.2m/s
05:00 Cloudy 23°F 78.3% 0mm 999.9km Northeast  1.9m/s
08:00 Cloudy 25°F 68.5% 0mm 999.9km Northeast  2.6m/s
11:00 Sunny 34°F 50.2% 0mm 999.9km Northeast  3.5m/s
14:00 Sunny 39°F 49.4% 0mm 999.9km Northeast  4.0m/s
17:00 Sunny 36°F 49.8% 0mm 999.9km Northeast  3.2m/s
20:00 Sunny 32°F 39.6% 0mm 999.9km Northeast  1.8m/s
23:00 Sunny 24°F 64.7% 0mm 999.9km Northeast  2.5m/s
02:00 Sunny 20°F 65.7% 0mm 999.9km Northeast  2.2m/s
05:00 Sunny 18°F 65.1% 0mm 999.9km Northeast  2.3m/s
08:00 Sunny 25°F 58.4% 0mm 999.9km Northeast  2.2m/s
11:00 Sunny 35°F 41.6% 0mm 999.9km Northeast  2.7m/s
14:00 Sunny 41°F 35.7% 0mm 999.9km Northeast  2.9m/s
17:00 Sunny 36°F 39.5% 0mm 999.9km Northeast  2.2m/s
20:00 Sunny 29°F 33.6% 0mm 999.9km Northeast  3.2m/s
23:00 Cloudy 27°F 72% 0mm 999.9km Northeast  3.0m/s
02:00 Cloudy 25°F 76.6% 0mm 999.9km Southeast  2.2m/s
05:00 Cloudy 27°F 70.5% 0mm 999.9km Southeast  2.5m/s
08:00 Cloudy 29°F 63.8% 0mm 999.9km Southeast  1.9m/s
11:00 Cloudy 40°F 53.2% 0mm 999.9km Southeast  1.1m/s
14:00 Cloudy 42°F 42.2% 0mm 999.9km Southwest  2.2m/s
17:00 Cloudy 44°F 57.4% 0mm 999.9km Southeast  0.8m/s
20:00 Cloudy 39°F 44.6% 0mm 999.9km Southeast  1.9m/s
23:00 Cloudy 33°F 78.7% 0mm 999.9km Southeast  1.7m/s
02:00 Cloudy 31°F 91.4% 0mm 999.9km Southeast  2.2m/s
05:00 Cloudy 31°F 80.2% 0mm 999.9km Southeast  2.1m/s
08:00 Cloudy 31°F 74.6% 0mm 999.9km Southeast  2.4m/s
11:00 Cloudy 42°F 68.6% 0mm 999.9km Southwest  3.5m/s
14:00 Cloudy 40°F 69.9% 0mm 999.9km Southeast  0.8m/s
17:00 Cloudy 39°F 65.9% 0mm 999.9km Southwest  1.8m/s
20:00 Cloudy 38°F 62% 0mm 999.9km Northeast  1.4m/s
23:00 Cloudy 31°F 66.4% 0mm 999.9km Southwest  1.5m/s
02:00 Cloudy 28°F 83.4% 0mm 999.9km Northwest  1.1m/s
05:00 Cloudy 27°F 86.8% 0mm 999.9km Northwest  1.5m/s